All Starts

   

As of 06.24.17

Julien R. Leparoux

Add To
Virtual Stable
Back to Profile

All Starts in Thoroughbred Races

Track Date Race Race Type Purse Horse Name Finish Chart Video
SA 01/01/2007 3 Claiming $42,000 Red State 1 N/A
SA 01/01/2007 5 Maiden Special Weight $46,000 Come Over Again 5 N/A
SA 01/01/2007 6 Allowance Optional Claiming $63,000 Epic Power 3 N/A
SA 01/01/2007 7 El Conejo Handicap - Gr. 3 $100,000 Bushwacker 8 N/A
SA 01/01/2007 8 Monrovia Handicap - Gr. 3 $100,000 Kitty Hawk (GB) 3 N/A
TP 01/03/2007 1 Maiden Claiming $11,600 Moo Man 4 N/A
TP 01/03/2007 2 Claiming $7,000 Briefcase Beauty 5 N/A
TP 01/03/2007 3 Claiming $7,500 Survita 2 N/A
TP 01/03/2007 5 Claiming $10,700 Keda B 7 N/A
TP 01/03/2007 9 Maiden Claiming $9,700 Woodford's Gal 10 N/A
TP 01/04/2007 2 Claiming $7,000 Lucky Cutie 2 N/A
TP 01/04/2007 3 Claiming $10,700 Billy Bob Cat 3 N/A
TP 01/04/2007 4 Claiming $8,500 Judy's Gem 2 N/A
TP 01/04/2007 5 Claiming $10,700 Hum That Tune 2 N/A
TP 01/04/2007 7 Claiming $17,000 Slew's Sparkle 6 N/A
TP 01/05/2007 2 Maiden Claiming $7,000 Bold Doneraile 3 N/A
TP 01/05/2007 3 Claiming $7,000 Commit Me 1 N/A
TP 01/05/2007 4 Maiden Claiming $9,700 Scepter Reflector 4 N/A
TP 01/05/2007 7 Claiming $7,500 Warriors Path 1 N/A
TP 01/05/2007 10 Claiming $11,000 Bojangle's Cat 1 N/A
TP 01/06/2007 1 Maiden Claiming $6,000 Cosmic Star 4 N/A
TP 01/06/2007 2 Claiming $7,000 Ship's Captain 2 N/A
TP 01/06/2007 6 Claiming $7,500 Lac Indy 3 N/A
TP 01/06/2007 8 Maiden Claiming $9,700 D' Springs 3 N/A
TP 01/06/2007 11 Turfway Prevue Stakes $50,000 Carnacks Choice 1 N/A
TP 01/06/2007 12 Maiden Special Weight $20,100 Eight Eighty Eight 6 N/A
SA 01/07/2007 2 Maiden Special Weight $46,000 Iron Butterfly 7 N/A
SA 01/07/2007 4 Claiming $42,000 Bright Design 9 N/A
SA 01/07/2007 6 Maiden Special Weight $48,000 Got a Question 5 N/A
SA 01/07/2007 8 San Gorgonio Handicap - Gr. 2 $150,000 Grande Melody (IRE) 4 N/A
TP 01/10/2007 2 Claiming $6,400 Catnip Hill 1 N/A
TP 01/10/2007 5 Maiden Special Weight $20,100 Blackfoot Trail 5 N/A
TP 01/10/2007 6 Claiming $7,000 Force Forty Nine 4 N/A
TP 01/10/2007 7 Claiming $11,000 Jaguar Joe 6 N/A
TP 01/10/2007 8 Claiming $17,000 Kathy's Lil Cat 1 N/A
TP 01/10/2007 9 Maiden Claiming $7,000 In de Diner 10 N/A
TP 01/11/2007 1 Maiden Claiming $6,000 Sourire 4 N/A
TP 01/11/2007 2 Claiming $7,000 Colonization 5 N/A
TP 01/11/2007 3 Claiming $7,500 Step to the Music 3 N/A
TP 01/11/2007 4 Allowance $21,200 Conga 5 N/A
TP 01/11/2007 7 Claiming $12,500 High Speed Ali 1 N/A
TP 01/11/2007 8 Allowance $21,200 Bootco 5 N/A
TP 01/12/2007 2 Claiming $7,000 Coping With David 5 N/A
TP 01/12/2007 5 Claiming $7,000 Imbali 4 N/A
TP 01/12/2007 7 Maiden Special Weight $20,100 Gorgeous Trieste 2 N/A
TP 01/12/2007 8 Claiming $10,700 Hum That Tune 2 N/A
TP 01/12/2007 9 Claiming $13,000 Unbridled America 1 N/A
TP 01/12/2007 10 Allowance $23,700 Sanguinity 2 N/A
TP 01/12/2007 11 Maiden Special Weight $20,100 Summerlucky 3 N/A
TP 01/13/2007 1 Maiden Claiming $9,700 Rainbow Forest 6 N/A
TP 01/13/2007 2 Claiming $10,700 Mama's Tune 6 N/A
TP 01/13/2007 3 Maiden Claiming $7,000 Face in the Mirror 1 N/A
TP 01/13/2007 4 Claiming $12,500 Familiar Ghost 1 N/A
TP 01/13/2007 5 Maiden Claiming $11,600 Chippewa Court 2 N/A
TP 01/13/2007 6 Starter Allowance $11,000 Cub's Power 2 N/A
TP 01/13/2007 7 Claiming $19,000 Out of View 7 N/A
TP 01/13/2007 8 Maiden Special Weight $20,100 Ante Up 4 N/A
TP 01/13/2007 9 Allowance $21,200 Kendon Valley 1 N/A
TP 01/13/2007 10 Allowance Optional Claiming $25,000 Beaugeste 5 N/A
TP 01/13/2007 11 Wishing Well Stakes $50,000 Mary Delaney 1 N/A
TP 01/13/2007 12 Maiden Special Weight $20,100 C. G's Striker 1 N/A
TP 01/14/2007 3 Claiming $6,400 Geronimo Joe 5 N/A
TP 01/14/2007 5 Claiming $7,000 Gun 1 N/A
TP 01/14/2007 6 Maiden Special Weight $20,100 Cowgirl Affair 8 N/A
TP 01/14/2007 7 Starter Allowance $9,700 Hoho Tow 1 N/A
TP 01/14/2007 8 Allowance $23,700 Payment in Kind 2 N/A
TP 01/14/2007 9 Maiden Special Weight $20,100 Palladium 5 N/A
TP 01/17/2007 1 Maiden Claiming $11,600 Home to Peachtree 1 N/A
TP 01/17/2007 3 Claiming $7,000 Silver Minister 2 N/A
TP 01/17/2007 5 Claiming $12,500 Colton's Magic Cat 3 N/A
TP 01/17/2007 6 Claiming $13,000 Catmeifyoucan 2 N/A
TP 01/17/2007 7 Claiming $12,500 Privy's Jewel 3 N/A
TP 01/17/2007 8 Allowance $21,200 What a Character 3 N/A
TP 01/17/2007 9 Claiming $7,500 Sea of Victory 5 N/A
TP 01/18/2007 1 Maiden Claiming $7,000 Better Than Ready 4 N/A
TP 01/18/2007 7 Claiming $10,700 Warriors Path 3 N/A
TP 01/18/2007 8 Allowance Optional Claiming $25,000 Exploivacious 3 N/A
TP 01/18/2007 9 Maiden Claiming $9,700 Rose Blanket 6 N/A
TP 01/19/2007 1 Maiden Claiming $13,500 Acallaway 7 N/A
TP 01/19/2007 4 Claiming $7,500 Commit Me 2 N/A
TP 01/19/2007 5 Maiden Claiming $11,600 Pocket Pair 7 N/A
TP 01/19/2007 6 Claiming $11,000 Pardon My Heart 2 N/A
TP 01/19/2007 7 Maiden Claiming $9,700 Oneway Mama 9 N/A
TP 01/19/2007 9 Claiming $12,500 Elaines Rocket 1 N/A
TP 01/19/2007 10 Allowance $21,200 Sterling Heat 8 N/A
TP 01/20/2007 2 Claiming $6,400 Colonel Matt 5 N/A
TP 01/20/2007 4 Allowance $23,700 Summer Romance 3 N/A
TP 01/20/2007 5 Claiming $6,400 Classy Brute 2 N/A
TP 01/20/2007 7 Maiden Special Weight $20,100 Countess Scala 1 N/A
TP 01/20/2007 10 Allowance Optional Claiming $25,000 Mighty Military 5 N/A
TP 01/20/2007 11 Cincinnati Trophy Stakes $50,000 She's Impossible 3 N/A
TP 01/20/2007 12 Maiden Special Weight $20,100 Extremadura 5 N/A
SA 01/21/2007 4 Maiden Claiming $22,000 Oh Youre Swaledale 11 N/A
SA 01/21/2007 5 Allowance $55,000 Branca Como Neve (BRZ) 2 N/A
SA 01/21/2007 6 Maiden Special Weight $48,000 Time Squared 3 N/A
SA 01/21/2007 9 Claiming $41,000 Imitation 6 N/A
TP 01/24/2007 1 Maiden Claiming $6,000 Stole My Thunder 8 N/A
TP 01/24/2007 2 Claiming $7,000 Ship's Captain 2 N/A
TP 01/24/2007 3 Maiden Claiming $11,600 Swift Justice 1 N/A
TP 01/24/2007 7 Claiming $10,700 Striking Jean 2 N/A
TP 01/24/2007 8 Allowance $21,200 Fairy Princess 6 N/A
TP 01/24/2007 9 Maiden Claiming $9,700 D' Springs 1 N/A
TP 01/25/2007 1 Claiming $12,500 Dicey 1 N/A
TP 01/25/2007 3 Maiden Claiming $7,000 Itseverclear 4 N/A
TP 01/25/2007 4 Claiming $10,700 Billy Bob Cat 7 N/A
TP 01/25/2007 5 Claiming $10,700 Mazel Magic 4 N/A
TP 01/25/2007 7 Claiming $7,000 Pat the Winner 3 N/A
TP 01/25/2007 8 Claiming $17,000 Pyramyst 2 N/A
TP 01/25/2007 9 Maiden Claiming $11,600 Thunder One 9 N/A
TP 01/26/2007 1 Maiden Claiming $7,000 Frencheys Baby 7 N/A
TP 01/26/2007 3 Claiming $6,400 Geronimo Joe 5 N/A
TP 01/26/2007 4 Claiming $12,500 Just for Kicks 3 N/A
TP 01/26/2007 5 Claiming $6,400 Catnip Hill 2 N/A
TP 01/26/2007 6 Claiming $7,500 Wilderness Trail 6 N/A
TP 01/26/2007 7 Claiming $12,500 Clever Dude 1 N/A
TP 01/26/2007 11 Allowance $21,200 Harmony Jane 5 N/A
TP 01/27/2007 2 Maiden Claiming $7,000 Laterornever 5 N/A
TP 01/27/2007 4 Claiming $6,400 Appealingtempting 4 N/A
TP 01/27/2007 5 Maiden Claiming $9,700 Delta Slam 4 N/A
TP 01/27/2007 7 Maiden Special Weight $20,100 Gorgeous Trieste 1 N/A
TP 01/27/2007 8 Allowance $21,200 Catman Running 1 N/A
TP 01/27/2007 9 Maiden Special Weight $20,100 Way Sassy 4 N/A
TP 01/27/2007 10 Allowance $21,200 Fieldabeat 3 N/A
TP 01/27/2007 11 Forego Stakes $50,000 Straight Line 8 N/A
TP 01/27/2007 12 Maiden Special Weight $20,100 Devil Slam 7 N/A
TP 01/31/2007 2 Claiming $7,000 Mark of Perfection 7 N/A
TP 01/31/2007 4 Starter Allowance $9,700 Craig's Tyler 4 N/A
TP 01/31/2007 6 Claiming $11,000 Bavarian Baron 6 N/A
TP 01/31/2007 8 Allowance $22,700 Grand Traverse 6 N/A
TP 01/31/2007 9 Maiden Claiming $9,700 Scepter Reflector 1 N/A
TP 02/01/2007 1 Claiming $6,400 Powerminded 4 N/A
TP 02/01/2007 2 Maiden Claiming $6,000 Traction 7 N/A
TP 02/01/2007 3 Claiming $6,400 Colonel Matt 7 N/A
TP 02/01/2007 6 Claiming $6,400 Classy Brute 1 N/A
TP 02/01/2007 7 Claiming $7,500 Imbali 2 N/A
TP 02/01/2007 8 Maiden Special Weight $21,500 Ice Boyz 4 N/A
TP 02/01/2007 9 Claiming $7,000 Another Angel Home 4 N/A
TP 02/02/2007 3 Claiming $7,000 Silver Minister 6 N/A
TP 02/02/2007 7 Maiden Claiming $11,600 Judith's Fancy 7 N/A
TP 02/02/2007 8 Claiming $10,700 Spotless Mind 3 N/A
TP 02/02/2007 9 Maiden Special Weight $21,500 Starlicious 2 N/A
TP 02/02/2007 10 Claiming $17,000 Back to Bernie 4 N/A
TP 02/02/2007 11 Allowance $22,700 Bond Street 2 N/A
TP 02/02/2007 12 Maiden Special Weight $21,500 Gerivello 4 N/A
SA 02/03/2007 3 Allowance $50,000 Red State 3 N/A
SA 02/03/2007 6 Maiden Special Weight $46,000 Westerly Magic 7 N/A
SA 02/03/2007 7 Sham Stakes - Gr. 3 $100,000 Time Squared 7 N/A
SA 02/03/2007 8 Thunder Road Handicap $75,000 Bayeux 2 N/A
SA 02/04/2007 4 Maiden Special Weight $48,000 Pavarotti 2 N/A
SA 02/04/2007 5 Allowance $55,000 Gimme S'mor 2 N/A
SA 02/04/2007 7 Claiming $22,000 Dover Dere 1 N/A
SA 02/04/2007 8 San Antonio Handicap - Gr. 2 $250,000 Ball Four 2 N/A
SA 02/07/2007 6 Maiden Special Weight $46,000 Voulez Vous 1 N/A
TP 02/08/2007 2 Maiden Claiming $7,000 Tribal Spirit 2 N/A
TP 02/09/2007 1 Claiming $12,500 Kiln Creek 2 N/A
TP 02/09/2007 3 Claiming $7,500 Check In Check Out 4 N/A
TP 02/09/2007 8 Maiden Claiming $9,700 Built to Win 3 N/A
TP 02/09/2007 10 Maiden Special Weight $21,500 Way Sassy 5 N/A
TP 02/09/2007 12 Maiden Claiming $9,700 Slew City Rouge 3 N/A
TP 02/10/2007 2 Maiden Claiming $11,600 Thunder One 1 N/A
TP 02/10/2007 3 Claiming $10,700 Spirit of Fire 1 N/A
TP 02/11/2007 2 Claiming $6,400 Blackenberry 10 N/A
TP 02/11/2007 3 Claiming $7,500 Snip the Ribbon 2 N/A
TP 02/11/2007 4 Claiming $7,000 Another Angel Home 6 N/A
TP 02/11/2007 6 Claiming $12,500 Swift Justice 5 N/A
TP 02/11/2007 8 Allowance $22,700 Countess Scala 2 N/A
TP 02/11/2007 9 Allowance Optional Claiming $26,700 Mocha Queen 1 N/A
TP 02/11/2007 10 Maiden Special Weight $21,500 Dezba 5 N/A
OTC 02/12/2007 1 Ocala Breeders' Sale Sprint Stakes $50,000 Taletobetold 2 N/A
OTC 02/12/2007 2 Ocala Breeders' Sale Sprint Stakes $50,000 B. B. Mancini 3 N/A
OTC 02/12/2007 4 Florida Breeders' Distaff Stakes $45,000 Top Notch Lady 1 N/A
OTC 02/12/2007 5 Ocala Breeders' Sale Championship Stakes $100,000 Start a Revolution 7 N/A
OTC 02/12/2007 6 Ocala Breeders' Sale Championship Stakes $100,000 Ididn'tdoanything 7 N/A
TP 02/17/2007 1 Maiden Claiming $10,200 Wright At the Wire 1 N/A
TP 02/17/2007 3 Maiden Claiming $12,200 Chippewa Court 1 N/A
TP 02/17/2007 8 Claiming $13,100 Just for Kicks 1 N/A
TP 02/17/2007 9 Maiden Special Weight $23,900 Independent Act 2 N/A
TP 02/17/2007 10 Allowance Optional Claiming $29,500 Mighty Military 4 N/A
TP 02/17/2007 11 Dust Commander Stakes $50,000 Dynareign 6 N/A
TP 02/17/2007 12 Maiden Special Weight $23,900 Sun Sheika 2 N/A
TP 02/18/2007 1 Maiden Claiming $7,500 Juliska 2 N/A
TP 02/18/2007 2 Claiming $7,900 Value Driver 1 N/A
TP 02/18/2007 7 Claiming $7,900 Hum That Tune 3 N/A
TP 02/18/2007 8 Claiming $8,900 Imbali 4 N/A
SA 02/19/2007 1 Maiden Special Weight $46,000 Got a Question 4 N/A
SA 02/19/2007 9 Buena Vista Handicap - Gr. 2 $150,000 Grande Melody (IRE) 5 N/A
TP 02/21/2007 2 Maiden Claiming $7,300 Secret Melody 3 N/A
TP 02/21/2007 3 Claiming $11,200 Three Cities 1 N/A
TP 02/21/2007 6 Claiming $11,500 Shezyou Brewing 2 N/A
TP 02/21/2007 7 Claiming $13,600 Ambassador Jack 3 N/A
TP 02/21/2007 8 Allowance $25,200 Bond Street 1 N/A
TP 02/22/2007 1 Maiden Claiming $10,200 Slew City Rouge 2 N/A
TP 02/22/2007 3 Maiden Claiming $12,200 Rendon Street 1 N/A
TP 02/22/2007 4 Claiming $17,800 Darrell H 2 N/A
TP 02/22/2007 5 Claiming $8,900 King David's Son 5 N/A
TP 02/22/2007 6 Claiming $13,100 Kiln Creek 2 N/A
TP 02/22/2007 7 Maiden Special Weight $23,900 Summerlucky 2 N/A
TP 02/22/2007 8 Allowance $28,000 Payment in Kind 5 N/A
TP 02/23/2007 1 Maiden Claiming $12,200 Devil Slam 4 N/A
TP 02/23/2007 4 Maiden Special Weight $23,900 Our Accipiter 4 N/A
TP 02/23/2007 5 Claiming $7,300 Commit Me 5 N/A
TP 02/23/2007 7 Claiming $8,900 Moonlit Romance 9 N/A
TP 02/23/2007 8 Maiden Special Weight $23,900 Gospel Singer 1 N/A
TP 02/23/2007 9 Claiming $13,100 Elaines Rocket 3 N/A
TP 02/23/2007 10 Claiming $19,900 El Condor 1 N/A
TP 02/23/2007 11 Claiming $11,200 Mama's Tune 1 N/A
TP 02/23/2007 12 Maiden Claiming $7,300 Tribal Spirit 1 N/A
TP 02/24/2007 1 Maiden Claiming $7,300 Itseverclear 2 N/A
TP 02/24/2007 2 Maiden Claiming $10,200 Lucysykes 1 N/A
TP 02/24/2007 3 Claiming $11,200 D' Springs 5 N/A
TP 02/24/2007 6 Maiden Claiming $14,200 Flapper 1 N/A
TP 02/24/2007 7 Claiming $11,500 Doll and a Half 8 N/A
TP 02/24/2007 8 Claiming $17,800 Spirit of Fire 5 N/A
TP 02/24/2007 9 Maiden Special Weight $23,900 Markum 1 N/A
TP 02/24/2007 10 Allowance $25,200 Gorgeous Trieste 7 N/A
TP 02/24/2007 11 Valdale Stakes $50,000 Bavarian Belle 2 N/A
TP 02/24/2007 12 Maiden Special Weight $23,900 Starlicious 3 N/A
SA 02/25/2007 4 Maiden Special Weight $46,000 Dixie Vixen 7 N/A
SA 02/25/2007 5 Allowance Optional Claiming $59,000 Chadlington (IRE) 10 N/A
SA 02/25/2007 7 San Luis Obispo Handicap - Gr. 2 $150,000 On the Acorn (GB) 2 N/A
TP 02/28/2007 3 Maiden Claiming $12,200 Fittipaldi 2 N/A
TP 02/28/2007 4 Claiming $7,900 Blackenberry 6 N/A
TP 02/28/2007 6 Claiming $11,200 Check In Check Out 8 N/A
TP 02/28/2007 7 Claiming $17,800 Slew's Sparkle 7 N/A
TP 02/28/2007 8 Allowance $25,200 Countess Scala 2 N/A
TP 02/28/2007 9 Maiden Claiming $7,300 Political Cat 2 N/A
TP 03/01/2007 1 Claiming $6,700 One True Friend 3 N/A
TP 03/01/2007 3 Claiming $7,300 House of Sensation 1 N/A
TP 03/01/2007 5 Maiden Claiming $6,300 Joyeaux Dinosaur 3 N/A
TP 03/01/2007 6 Starter Allowance $11,500 That's a Secret 2 N/A
TP 03/01/2007 8 Claiming $13,100 Ni Kel Willy 1 N/A
TP 03/01/2007 9 Maiden Claiming $7,300 Frencheys Baby 4 N/A
SA 03/02/2007 1 Maiden Special Weight $48,000 Iron Butterfly 1 N/A
SA 03/02/2007 8 Allowance $50,000 Red State 4 N/A
SA 03/03/2007 1 Maiden Special Weight $61,000 A Fleet Pace 7 N/A
SA 03/03/2007 3 Maiden Special Weight $61,000 Mobo 11 N/A
SA 03/03/2007 4 China Doll Stakes $90,000 Here Comes Ray Ray 7 N/A
SA 03/03/2007 6 Allowance Optional Claiming $70,000 Gimme S'mor 6 N/A
SA 03/03/2007 7 Frank E. Kilroe Mile Handicap - Gr. 1 $300,000 Bayeux 2 N/A
SA 03/03/2007 8 Robert B. Lewis Stakes - Gr. 2 $200,000 French Transition 5 N/A
SA 03/03/2007 9 Flower Girl Handicap $90,000 Kitty Hawk (GB) 6 N/A
SA 03/03/2007 10 Santa Anita Handicap - Gr. 1 $1,000,000 Ball Four 6 N/A
SA 03/03/2007 11 Allowance $83,000 Greater Good 9 N/A
SA 03/04/2007 6 Allowance $50,000 Miss Norman 2 N/A
SA 03/04/2007 8 La Habra Stakes $100,000 Voulez Vous 11 N/A
TP 03/07/2007 2 Claiming $7,400 Derby Vow 5 N/A
TP 03/07/2007 3 Maiden Claiming $11,200 Frisco Depot 2 N/A
TP 03/07/2007 4 Claiming $7,400 Tribal Spirit 6 N/A
TP 03/07/2007 5 Maiden Claiming $13,400 The Color Red 2 N/A
TP 03/07/2007 6 Claiming $14,400 Swift Justice 1 N/A
TP 03/07/2007 8 Allowance $34,900 Trolley's Last 3 N/A
TP 03/08/2007 1 Maiden Claiming $8,000 Juliska 1 N/A
TP 03/08/2007 2 Claiming $7,400 Spentorian 3 N/A
TP 03/08/2007 3 Claiming $8,700 Imbali 3 N/A
TP 03/08/2007 5 Claiming $12,300 Gorbash 2 N/A
TP 03/08/2007 7 Maiden Claiming $13,400 Blue Rendezview 1 N/A
TP 03/09/2007 3 Maiden Claiming $8,000 Secret Melody 1 N/A
TP 03/09/2007 4 Claiming $8,000 King David's Son 2 N/A
TP 03/09/2007 5 Maiden Claiming $15,600 Monsooned Malabar 1 N/A
TP 03/09/2007 6 Claiming $12,600 Pyramyst 5 N/A
TP 03/09/2007 7 Maiden Special Weight $25,300 Dezba 1 N/A
TP 03/09/2007 8 Allowance $26,700 Wright At the Wire 3 N/A
TP 03/09/2007 10 Allowance Optional Claiming $29,700 Payment in Kind 4 N/A
FG 03/10/2007 5 Bienville Stakes $100,000 No Greater Love 8 N/A
FG 03/10/2007 7 Mervin H. Muniz Jr. Memorial Handicap - Gr. 2 $500,000 Macduff (GB) 8 N/A
FG 03/10/2007 9 Louisiana Derby - Gr. 2 $600,000 Slew's Tizzy 7 N/A
FG 03/10/2007 10 Allowance $48,500 What Will Be 5 N/A
SA 03/11/2007 9 Santa Anita Oaks - Gr. 1 $300,000 Baroness Thatcher 4 N/A
TP 03/14/2007 8 Claiming $8,000 Commit Me 3 N/A
TP 03/14/2007 9 Maiden Claiming $11,200 Royal Rosanna 3 N/A
TP 03/15/2007 1 Claiming $8,700 Original Sting 5 N/A
TP 03/15/2007 4 Claiming $8,000 Ship's Captain 4 N/A
TP 03/15/2007 7 Claiming $15,000 Star Crest 4 N/A
TP 03/15/2007 8 Allowance Optional Claiming $31,200 Raedonald 3 N/A
TP 03/16/2007 1 Claiming $14,400 Kiln Creek 1 N/A
TP 03/16/2007 2 Maiden Claiming $13,400 Deaver 3 N/A
TP 03/16/2007 4 Maiden Claiming $8,000 Delta Slam 3 N/A
TP 03/16/2007 9 Maiden Claiming $13,400 Doublearmdance 4 N/A
TP 03/16/2007 10 Allowance Optional Claiming $30,800 Sweetcarolinarose 7 N/A
TP 03/16/2007 11 Maiden Special Weight $26,300 Independent Act 4 N/A
TP 03/17/2007 4 Claiming $8,000 Tricky Tyler 7 N/A
TP 03/17/2007 7 Maiden Special Weight $26,300 Sun Sheika 2 N/A
TP 03/17/2007 8 Claiming $14,400 Sky 1 N/A
TP 03/17/2007 9 Allowance $27,800 Fieldabeat 2 N/A
TP 03/17/2007 10 Allowance $27,800 Ni Kel Willy 3 N/A
TP 03/17/2007 11 Tejano Run Stakes $50,000 Bond Street 8 N/A
TP 03/17/2007 12 Maiden Claiming $8,000 Frencheys Baby 7 N/A
TP 03/18/2007 3 Maiden Claiming $13,400 Louisville Sam 1 N/A
TP 03/18/2007 6 Claiming $8,700 Domestic Oil 2 N/A
TP 03/18/2007 7 Maiden Special Weight $26,300 You Call That Art 1 N/A
TP 03/18/2007 9 Claiming $8,700 Craig's Tyler 1 N/A
TP 03/21/2007 2 Claiming $8,000 Mark of Perfection 3 N/A
TP 03/21/2007 3 Maiden Claiming $11,200 Foxtail Jill 4 N/A
TP 03/21/2007 4 Claiming $12,300 Juliska 1 N/A
TP 03/21/2007 5 Maiden Claiming $13,400 Cowgirl Affair 3 N/A
TP 03/21/2007 7 Claiming $14,400 Colton's Magic Cat 4 N/A
TP 03/22/2007 1 Starter Allowance $11,200 King David's Son 2 N/A
TP 03/22/2007 2 Maiden Claiming $8,000 Self Made Man 1 N/A
TP 03/22/2007 5 Starter Allowance $11,200 Shezyou Brewing 2 N/A
TP 03/22/2007 7 Claiming $12,300 Eternal Sunshine 1 N/A
TP 03/22/2007 8 Allowance Optional Claiming $30,800 Familiar Ghost 3 N/A
TP 03/23/2007 5 Claiming $14,400 Thunder One 1 N/A
TP 03/23/2007 7 Maiden Special Weight $26,300 Peig Sayers 4 N/A
TP 03/23/2007 8 Claiming $15,000 Liepers Fork 1 N/A
TP 03/23/2007 9 Claiming $14,400 Privy's Jewel 7 N/A
TP 03/23/2007 10 Allowance Optional Claiming $30,800 Philanthropy Lady 2 N/A
TP 03/24/2007 2 Maiden Special Weight $26,300 Gerivello 2 N/A
TP 03/24/2007 3 Starter Allowance $11,200 Running Play 3 N/A
TP 03/24/2007 4 Maiden Special Weight $26,300 Raise a Gentleman 5 N/A
TP 03/24/2007 5 Allowance $27,800 Whimsical Miss 7 N/A
TP 03/24/2007 6 Maiden Special Weight $26,300 Mallabar 1 N/A
TP 03/24/2007 7 Hansel Stakes $50,000 Awesome Hero 1 N/A
TP 03/24/2007 8 Bourbonette Oaks - Gr. 3 $150,000 Bavarian Belle 7 N/A
TP 03/24/2007 9 Rushaway Stakes $100,000 Passport 5 N/A
TP 03/24/2007 10 Lane's End Stakes - Gr. 2 $500,000 Forefathers 12 N/A
TP 03/24/2007 11 Queen Stakes $50,000 Cheerily (IRE) 9 N/A
TP 03/24/2007 12 Maiden Special Weight $26,300 Spin the Gold 9 N/A
TP 03/25/2007 5 Claiming $8,000 Beaulieu 4 N/A
TP 03/25/2007 7 Claiming $12,300 New Awakening 2 N/A
TP 03/28/2007 1 Maiden Claiming $8,000 Better Than Ready 3 N/A
TP 03/28/2007 2 Maiden Claiming $11,200 Acallaway 1 N/A
TP 03/28/2007 4 Claiming $12,300 Mama's Tune 7 N/A
TP 03/28/2007 5 Maiden Claiming $13,400 The Color Red 1 N/A
TP 03/28/2007 7 Maiden Claiming $15,600 Withagrainofsalt 3 N/A
TP 03/28/2007 8 Allowance Optional Claiming $30,800 Payment in Kind 9 N/A
TP 03/28/2007 9 Claiming $7,400 Derby Vow 2 N/A
TP 03/29/2007 1 Maiden Claiming $6,900 C. Mo Dee 3 N/A
TP 03/29/2007 2 Claiming $7,400 Strong Beau 8 N/A
TP 03/29/2007 7 Allowance $27,800 Euphoric 7 N/A
TP 03/29/2007 8 Allowance Optional Claiming $32,400 King of Speed 5 N/A
TP 03/30/2007 3 Maiden Claiming $13,400 Ura Wild Won 2 N/A
TP 03/30/2007 5 Claiming $8,700 Gorbash 5 N/A
TP 03/30/2007 7 Claiming $9,800 Doctor Jane 6 N/A
TP 03/30/2007 8 Maiden Special Weight $26,300 Saint Pegasus 1 N/A
TP 03/30/2007 9 Allowance $27,800 Gospel Singer 2 N/A
TP 03/30/2007 10 Claiming $12,300 D' Springs 5 N/A
TP 03/30/2007 11 Maiden Special Weight $26,300 Summerlucky 1 N/A
TP 03/31/2007 1 Maiden Claiming $15,600 Added Value 7 N/A
TP 03/31/2007 5 Maiden Claiming $11,200 Crystal Bowl 3 N/A
TP 03/31/2007 10 Allowance $27,800 What a Character 1 N/A
TP 03/31/2007 11 Fairway Fun Stakes $50,000 Top Notch Lady 8 N/A
TP 03/31/2007 12 Maiden Special Weight $26,300 Starlicious 3 N/A
TP 04/01/2007 2 Claiming $7,400 Domestic Oil 1 N/A
TP 04/01/2007 3 Claiming $12,300 Miss Sub Z 1 N/A
TP 04/01/2007 6 Claiming $12,300 Lucysykes 3 N/A
TP 04/01/2007 7 Claiming $14,400 Elaines Rocket 6 N/A
TP 04/01/2007 8 Allowance $27,800 La Bomba 2 N/A
TP 04/01/2007 9 Maiden Claiming $11,200 Pushed for Time 8 N/A
TP 04/04/2007 2 Maiden Claiming $13,400 Doublearmdance 1 N/A
TP 04/04/2007 3 Claiming $8,000 Mark of Perfection 5 N/A
TP 04/04/2007 6 Maiden Special Weight $26,300 Vilas County 8 N/A
TP 04/04/2007 7 Claiming $14,400 Swift Justice 1 N/A
TP 04/04/2007 8 Allowance $27,800 Ky Bluz Girl 1 N/A
TP 04/04/2007 9 Maiden Claiming $8,000 Delta Slam 1 N/A
TP 04/05/2007 2 Claiming $8,700 Secret Melody 2 N/A
TP 04/05/2007 3 Maiden Claiming $8,000 Eternal Life 1 N/A
TP 04/05/2007 8 Maiden Special Weight $26,300 Peig Sayers 3 N/A
TP 04/05/2007 9 Allowance Optional Claiming $32,400 Engineered 1 N/A
KEE 04/06/2007 1 Maiden Special Weight $50,000 Nownownow 2 N/A
KEE 04/06/2007 3 Claiming $22,000 Rendon Street 1 N/A
KEE 04/06/2007 4 Allowance $54,000 Talent Scout 11 N/A
KEE 04/06/2007 5 Maiden Special Weight $50,000 Time Squared 1 N/A
KEE 04/06/2007 6 Allowance Optional Claiming $62,000 Vague 4 N/A
KEE 04/06/2007 7 Allowance $54,000 Her Majesty 2 N/A
KEE 04/06/2007 8 Allowance Optional Claiming $67,000 Irene's Mon 6 N/A
KEE 04/06/2007 9 Central Bank Transylvania Stakes - Gr. 3 $150,000 Everyman 6 N/A
KEE 04/07/2007 2 Claiming $30,000 Ask the Lord 3 N/A
KEE 04/07/2007 3 Claiming $17,000 Confirmed 1 N/A
KEE 04/07/2007 4 Allowance $54,000 What a Tale 5 N/A
KEE 04/07/2007 5 Maiden Special Weight $50,000 Trensa 1 N/A
KEE 04/07/2007 6 Allowance $58,000 Benny the Bull 6 N/A
KEE 04/07/2007 7 Allowance $67,000 Swagger Stick 9 N/A
KEE 04/07/2007 8 Lafayette Stakes $100,000 Carnacks Choice 1 N/A
KEE 04/07/2007 9 Ashland Stakes - Gr. 1 $500,000 High Again 4 N/A
KEE 04/07/2007 10 Allowance $54,000 Zulu Queen (IRE) 10 N/A
KEE 04/11/2007 1 Maiden Special Weight $50,000 Biblical Point 5 N/A
KEE 04/11/2007 2 Claiming $22,000 Clever Dude 6 N/A
KEE 04/11/2007 3 Maiden Special Weight $50,000 Manhasset Indian 5 N/A
KEE 04/11/2007 4 Allowance $54,000 Quiet Action 4 N/A
KEE 04/11/2007 5 Maiden Special Weight $50,000 Sun Sheika 1 N/A
KEE 04/11/2007 6 Allowance $58,000 Hayden Valley 5 N/A
KEE 04/11/2007 7 Allowance $54,000 Sprung 7 N/A
KEE 04/11/2007 8 Vinery Madison Stakes - Gr. 2 $200,000 Miss Norman 7 N/A
KEE 04/11/2007 9 Claiming $22,000 Harlow Gold 1 N/A
KEE 04/12/2007 1 Claiming $17,000 Slew's Sparkle 6 N/A
KEE 04/12/2007 3 Claiming $30,000 El Condor 3 N/A
KEE 04/12/2007 4 Maiden Special Weight $50,000 Upcoming Story 1 N/A
KEE 04/12/2007 5 Allowance $54,000 Dan McGrew 8 N/A
KEE 04/12/2007 6 Allowance $54,000 Markum 3 N/A
KEE 04/12/2007 7 Allowance Optional Claiming $62,000 Sadler's Trick 6 N/A
KEE 04/12/2007 8 Stonerside Beaumont Stakes - Gr. 2 $250,000 Baroness Thatcher 5 N/A
KEE 04/12/2007 9 Claiming $22,000 C. G's Striker 2 N/A
KEE 04/13/2007 1 Maiden Claiming $21,000 Rayona 4 N/A
KEE 04/13/2007 2 Claiming $22,000 Star Crest 1 N/A
KEE 04/13/2007 4 Allowance $54,000 Countess Scala 6 N/A
KEE 04/13/2007 5 Allowance $58,000 Bond Street 7 N/A
KEE 04/13/2007 6 Maiden Special Weight $50,000 Quasicobra 1 N/A
KEE 04/13/2007 7 Allowance $54,000 Spanish Ghost 8 N/A
KEE 04/13/2007 9 Maker's Mark Mile Stakes - Gr. 2 $250,000 Bayeux 4 N/A
KEE 04/13/2007 10 Maiden Special Weight $50,000 Monsieur Fruchon 6 N/A
KEE 04/14/2007 2 Claiming $35,000 Monsooned Malabar 2 N/A
KEE 04/14/2007 4 Allowance $66,000 Stream Cat 1 N/A
KEE 04/14/2007 5 Maiden Special Weight $50,000 Scarlett's Place 7 N/A
KEE 04/14/2007 6 Jenny Wiley Stakes - Gr. 2 $200,000 Mauralakana (FR) 4 N/A
KEE 04/14/2007 7 Allowance Optional Claiming $62,000 Carnera 1 N/A
KEE 04/14/2007 8 Commonwealth Breeders' Cup Stakes - Gr. 2 $400,000 River City Rebel 8 N/A
KEE 04/14/2007 9 Toyota Blue Grass Stakes - Gr. 1 $750,000 Time Squared 6 N/A
KEE 04/14/2007 10 Allowance $58,000 Birdie Sets Sail 9 N/A
KEE 04/15/2007 1 Maiden Claiming $21,000 Rainbow Flight 10 N/A
KEE 04/15/2007 2 Maiden Special Weight $50,000 Akin 6 N/A
KEE 04/15/2007 3 Claiming $34,000 Unthinkable 1 N/A
KEE 04/15/2007 4 Claiming $35,000 Chippewa Court 9 N/A
KEE 04/15/2007 5 Allowance $58,000 Victory Design (IRE) 2 N/A
KEE 04/15/2007 6 Maiden Special Weight $50,000 Proper Causeway 9 N/A
KEE 04/15/2007 7 Allowance $54,000 Chekhov 4 N/A
KEE 04/15/2007 8 Shakertown Stakes - Gr. 3 $100,000 Congo King 2 N/A
KEE 04/15/2007 9 Claiming $17,000 Eternal Sunshine 1 N/A
KEE 04/18/2007 1 Maiden Special Weight $50,000 L' Aziza 2 N/A
KEE 04/18/2007 4 Claiming $37,000 Come On Cathy Ann 2 N/A
KEE 04/18/2007 5 Maiden Special Weight $50,000 Im Classic Quality 2 N/A
KEE 04/18/2007 6 Allowance $58,000 Bernie White Shoes 8 N/A
KEE 04/18/2007 7 Allowance $62,000 Dubai Gold 8 N/A
KEE 04/18/2007 8 Doubledogdare Stakes - Gr. 3 $100,000 Pyramid Love 2 N/A
KEE 04/18/2007 9 Allowance $54,000 Flawless Treasure 2 N/A
KEE 04/19/2007 1 Maiden Special Weight $50,000 Manhasset Indian 9 N/A
KEE 04/19/2007 2 Maiden Special Weight $50,000 Special Run 2 N/A
KEE 04/19/2007 3 Allowance Optional Claiming $58,000 Taletobetold 4 N/A
KEE 04/19/2007 5 Allowance $54,000 My Lovely Lesley 6 N/A
KEE 04/19/2007 6 Allowance $62,000 Danzon 1 N/A
KEE 04/19/2007 7 Allowance $58,000 Sumthingtotalkabt 2 N/A
KEE 04/19/2007 8 Forerunner Stakes $100,000 Summerlucky 7 N/A
KEE 04/19/2007 9 Claiming $17,000 Back to Bernie 1 N/A
KEE 04/20/2007 2 Claiming $44,000 Pimentinha 3 N/A
KEE 04/20/2007 3 Claiming $27,000 Bellagar 7 N/A
KEE 04/20/2007 4 Claiming $37,000 La Joyeria 4 N/A
KEE 04/20/2007 5 Maiden Special Weight $50,000 Scarlet Love 2 N/A
KEE 04/20/2007 6 Claiming $22,000 Louderfasterharder 3 N/A
KEE 04/20/2007 8 Allowance $54,000 Live From Appollo 2 N/A
KEE 04/20/2007 10 Maiden Special Weight $50,000 Runthruthejungle 9 N/A
KEE 04/21/2007 1 Starter Allowance $26,000 Rendon Street 4 N/A
KEE 04/21/2007 3 Claiming $30,000 Cincinnati Red 4 N/A
KEE 04/21/2007 4 Allowance $58,000 Deputy Indy 4 N/A
KEE 04/21/2007 5 Allowance $66,000 On the Border 8 N/A
KEE 04/21/2007 7 Giant's Causeway Stakes $100,000 Stadore (FR) 10 N/A
KEE 04/21/2007 8 Allowance $54,000 Travel Team 1 N/A
KEE 04/21/2007 9 Coolmore Lexington Stakes - Gr. 2 $325,000 Belgravia 9 N/A
KEE 04/21/2007 10 Maiden Special Weight $50,000 Got a Question 7 N/A
KEE 04/22/2007 1 Starter Allowance $21,000 Gold Brick (JPN) 6 N/A
KEE 04/22/2007 2 Maiden Special Weight $50,000 Syracusa 5 N/A
KEE 04/22/2007 3 Claiming $17,000 Elaines Rocket 1 N/A
KEE 04/22/2007 4 Allowance $66,000 Lady of Venice (FR) 1 N/A
KEE 04/22/2007 6 Allowance $58,000 Flow Chart (UAE) 1 N/A
KEE 04/22/2007 7 Allowance $54,000 Lorena Wood 9 N/A
KEE 04/22/2007 8 Appalachian Stakes $100,000 Good Mood (IRE) 8 N/A
KEE 04/22/2007 9 Maiden Claiming $21,000 Time to Play 5 N/A
KEE 04/25/2007 2 Maiden Special Weight $50,000 Wildcat Diva 3 N/A
KEE 04/25/2007 4 Claiming $37,000 Bernie White Shoes 8 N/A
KEE 04/25/2007 5 Allowance $54,000 More Daylight 4 N/A
KEE 04/25/2007 6 Maiden Special Weight $50,000 Tuesday Silence 4 N/A
KEE 04/25/2007 7 Allowance $54,000 Quasicobra 2 N/A
KEE 04/25/2007 9 Claiming $22,000 Self Made Man 1 N/A
KEE 04/26/2007 2 Claiming $30,000 Ask the Lord 2 N/A
KEE 04/26/2007 5 Claiming $44,000 Silver Vista 4 N/A
KEE 04/26/2007 6 Maiden Special Weight $50,000 Pauillac 1 N/A
KEE 04/26/2007 7 Allowance $58,000 Tiger Woodman 8 N/A
KEE 04/26/2007 8 Ben Ali Stakes - Gr. 3 $150,000 Stream Cat 4 N/A
KEE 04/26/2007 9 Allowance $54,000 Arosa (IRE) 2 N/A
KEE 04/27/2007 2 Maiden Claiming $21,000 Buddha's Mistique 4 N/A
KEE 04/27/2007 3 Claiming $17,000 Soooz 5 N/A
KEE 04/27/2007 4 Claiming $22,000 La Bomba 4 N/A
KEE 04/27/2007 5 Claiming $37,000 Come On Chas 4 N/A
KEE 04/27/2007 6 Allowance $58,000 Oceans Apart (GB) 9 N/A
KEE 04/27/2007 7 Maiden Special Weight $50,000 Star of Luvina 5 N/A
KEE 04/27/2007 8 Allowance $65,000 Go Now 8 N/A
KEE 04/27/2007 9 Fifth Third Elkhorn Stakes - Gr. 3 $200,000 Cloudy's Knight 5 N/A
KEE 04/27/2007 10 Allowance $54,000 French Transition 7 N/A
CD 04/28/2007 1 Maiden Claiming $19,000 Hottalkingal 6 N/A
CD 04/28/2007 2 Claiming $31,000 Victory Blue 1 N/A
CD 04/28/2007 3 Maiden Special Weight $48,000 Red Sand Beach 1 N/A
CD 04/28/2007 4 Allowance Optional Claiming $55,000 Vote Early 3 N/A
CD 04/28/2007 5 Starter Allowance $20,000 Big Slew 7 N/A
CD 04/28/2007 6 Maiden Claiming $19,000 Patricia's Cat 4 N/A
CD 04/28/2007 7 Allowance $50,000 Markum 4 N/A
CD 04/28/2007 9 Claiming $41,000 Spark of Humor 8 N/A
CD 04/28/2007 10 Derby Trial Stakes $100,000 Carnacks Choice 10 N/A
CD 04/28/2007 11 Claiming $23,000 Oriental Rose 5 N/A
CD 04/29/2007 3 Claiming $18,000 Dixie Dare 1 N/A
CD 04/29/2007 4 Claiming $18,000 Eternal Sunshine 6 N/A
CD 04/29/2007 5 Maiden Claiming $19,000 Six Pack Abs 1 N/A
CD 04/29/2007 6 Allowance Optional Claiming $58,500 Crested (GB) 1 N/A
CD 04/29/2007 7 Claiming $18,000 What the Devil 4 N/A
CD 04/29/2007 8 Maiden Special Weight $48,000 Gerivello 3 N/A
CD 04/29/2007 9 Allowance $52,500 Go Bucky Go 1 N/A
CD 04/29/2007 10 Claiming $23,000 Doublearmdance 7 N/A
CD 05/01/2007 2 Claiming $18,000 Neverabettercity 1 N/A
CD 05/01/2007 3 Claiming $23,000 Reito Peito 4 N/A
CD 05/01/2007 4 Claiming $33,000 Abbeys Runner 1 N/A
CD 05/01/2007 7 Maiden Claiming $24,000 Rayona 1 N/A
CD 05/01/2007 8 Starter Allowance $17,000 Kendon Valley 6 N/A
CD 05/02/2007 2 Claiming $17,000 Goes 3 N/A
CD 05/02/2007 3 Claiming $30,000 Darling Daughter 6 N/A
CD 05/02/2007 4 Maiden Special Weight $48,000 Yonegwa 3 N/A
CD 05/02/2007 6 Claiming $24,000 No Lac O Zip 1 N/A
CD 05/02/2007 7 Allowance Optional Claiming $58,500 Stadore (FR) 3 N/A
CD 05/02/2007 8 Allowance $50,000 Niagara Causeway 2 N/A
CD 05/02/2007 9 Allowance Optional Claiming $55,000 Reverential 5 N/A
CD 05/02/2007 10 Maiden Claiming $24,000 Moo Man 1 N/A
CD 05/03/2007 1 Claiming $24,000 Kiln Creek 3 N/A
CD 05/03/2007 2 Maiden Claiming $14,000 Cherokee Nation 2 N/A
CD 05/03/2007 3 Claiming $24,000 Babes 3 N/A
CD 05/03/2007 4 Claiming $18,000 Gold Brick (JPN) 3 N/A
CD 05/03/2007 5 Maiden Special Weight $48,000 L' Aziza 9 N/A
CD 05/03/2007 6 Claiming $15,000 Duke of London 2 N/A
CD 05/03/2007 8 Mamzelle Stakes $100,000 Vague 6 N/A
CD 05/03/2007 10 Allowance $50,000 Crumbs of Comfort 1 N/A
CD 05/04/2007 2 Maiden Special Weight $48,000 Etched in Gold 10 N/A
CD 05/04/2007 3 Allowance $50,000 Prospect Begonia 11 N/A
CD 05/04/2007 4 Alysheba Stakes - Gr. 3 $100,000 Smokeyjonessutton 6 N/A
CD 05/04/2007 5 Edgewood Stakes $150,000 Good Mood (IRE) 3 N/A
CD 05/04/2007 6 Allowance $50,000 Gem Sleuth 2 N/A
CD 05/04/2007 7 Aegon Turf Sprint Stakes - Gr. 3 $150,000 Congo King 3 N/A
CD 05/04/2007 9 Crown Royal American Turf Stakes - Gr. 3 $150,000 Jazz Quest 3 N/A
CD 05/04/2007 10 Kentucky Oaks - Gr. 1 $500,000 Swift Temper 10 N/A
CD 05/04/2007 11 Maiden Special Weight $48,000 Vilas County 9 N/A
CD 05/05/2007 1 Allowance $52,500 Primetime Princess 5 N/A
CD 05/05/2007 2 Maiden Special Weight $48,000 Beautiful You 4 N/A
CD 05/05/2007 3 Maiden Special Weight $48,000 Normandy Queen 7 N/A
CD 05/05/2007 4 Allowance $50,000 Mallabar 4 N/A
CD 05/05/2007 6 Churchill Distaff Turf Mile Stakes - Gr. 3 $150,000 Culpeper Moon 5 N/A
CD 05/05/2007 7 La Troienne Stakes - Gr. 3 $150,000 Upcoming Story 3 N/A
CD 05/05/2007 8 Humana Distaff Stakes - Gr. 1 $300,000 Carriage Trail 3 N/A
CD 05/05/2007 9 Woodford Reserve Turf Classic Stakes - Gr. 1 $500,000 Danzon 3 N/A
CD 05/05/2007 10 Kentucky Derby Presented by Yum! Brands - Gr. 1 $2,000,000 Sedgefield 5 N/A
CD 05/05/2007 11 Maiden Special Weight $48,000 Fantastic Bud 6 N/A
CD 05/05/2007 12 Allowance Optional Claiming $55,000 Louve des Reves (IRE) 1 N/A
HOL 05/06/2007 3 Hawthorne Handicap - Gr. 3 $100,000 Pyramid Love 4 N/A
CD 05/09/2007 2 Claiming $17,000 Holy Wonder 1
CD 05/09/2007 3 Claiming $23,000 Cincinnati Red 2
CD 05/09/2007 4 Maiden Claiming $14,000 Cowgirl Affair 3
CD 05/09/2007 5 Claiming $23,000 Doublearmdance 6
CD 05/09/2007 6 Claiming $36,000 Unthinkable 8
CD 05/09/2007 7 Maiden Special Weight $48,000 Dinner Guest 2
CD 05/09/2007 8 Allowance $52,500 Bond Street 4
CD 05/09/2007 9 Claiming $31,000 Monsooned Malabar 7
CD 05/10/2007 2 Claiming $30,000 Familiar Ghost 6
CD 05/10/2007 4 Claiming $17,000 Nip It 2
CD 05/10/2007 5 Maiden Claiming $14,000 Duke of Nottingham 8
CD 05/10/2007 6 Claiming $18,000 Pewee Valley 8
CD 05/10/2007 7 Allowance $50,000 Chekhov 3
CD 05/10/2007 9 Maiden Special Weight $48,000 Soso Sixteen 6
CD 05/11/2007 3 Starter Allowance $26,000 War Tracer 8
CD 05/11/2007 4 Claiming $17,000 Lovetheprospect 4
CD 05/11/2007 5 Claiming $23,000 Dancing in Gerarda 7
CD 05/11/2007 7 Allowance $50,000 Tactical Warning 7
CD 05/11/2007 11 Maiden Special Weight $48,000 Ardnavagh (FR) 1
CD 05/12/2007 1 Maiden Special Weight $48,000 Manofthewest 2
CD 05/12/2007 2 Maiden Claiming $24,000 Akin 4
CD 05/12/2007 3 Claiming $36,000 Joe Six Pack 1
CD 05/12/2007 4 Claiming $18,000 Louderfasterharder 1
CD 05/12/2007 6 Allowance Optional Claiming $61,000 Free Thinking 3
CD 05/12/2007 7 Maiden Claiming $19,000 Withagrainofsalt 9
CD 05/12/2007 8 Claiming $23,000 Direct Pay 3
CD 05/12/2007 9 Open Mind Stakes $100,000 Im Classic Quality 8
CD 05/12/2007 10 Allowance $50,000 Trick N Skip 6
CD 05/12/2007 11 Maiden Special Weight $48,000 Monsieur Fruchon 9
CD 05/13/2007 3 Claiming $23,000 Peace Pledge 5
CD 05/13/2007 4 Claiming $18,000 Colton's Magic Cat 5
CD 05/13/2007 6 Maiden Claiming $24,000 Oh Mia My Oh 7
CD 05/13/2007 7 Claiming $24,000 Chase Car 3
CD 05/13/2007 8 Maiden Special Weight $48,000 Last Kitten 6
CD 05/13/2007 9 Allowance $52,500 Native Ruler 5
CD 05/13/2007 10 Claiming $41,000 Kenta Kun 6
CD 05/16/2007 1 Maiden Claiming $19,000 Expect the End 1
CD 05/16/2007 2 Starter Allowance $17,000 Hello Ladies 5
CD 05/16/2007 5 Claiming $18,000 Acallaway 3
CD 05/16/2007 6 Maiden Claiming $24,000 My Pal Alex 3
CD 05/16/2007 7 Claiming $36,000 Spark of Humor 3
CD 05/16/2007 8 Allowance $50,000 You Call That Art 3
CD 05/16/2007 9 Allowance $50,000 Rendezvous Sioux 4
CD 05/17/2007 2 Claiming $41,000 Golden Glen 4
CD 05/17/2007 4 Maiden Special Weight $48,000 Vice Commander 2
CD 05/17/2007 5 Claiming $15,000 Kutenai 4
CD 05/17/2007 6 Allowance $50,000 Dan McGrew 5
CD 05/17/2007 7 Allowance $52,500 Sumthingtotalkabt 1
CD 05/17/2007 9 Maiden Special Weight $48,000 Ice Boyz 3
CD 05/18/2007 4 Allowance $50,000 Ura Wild Won 7
CD 05/18/2007 6 Claiming $23,000 Louisville Sam 5
CD 05/18/2007 7 Maiden Special Weight $48,000 Star of Luvina 1
CD 05/18/2007 8 Claiming $36,000 Miss Connie Sue 4
CD 05/18/2007 9 Allowance $52,500 Smokeyjonessutton 4
CD 05/18/2007 10 Allowance $50,000 Niagara Causeway 2
CD 05/18/2007 11 Maiden Special Weight $48,000 Priceless Gem 1
CD 05/19/2007 1 Claiming $17,000 Frisco Depot 3
CD 05/19/2007 3 Maiden Special Weight $48,000 Nownownow 2
CD 05/19/2007 4 Claiming $15,000 Silver Minister 4
CD 05/19/2007 5 Maiden Claiming $19,000 Afleet Footed Lady 12
CD 05/19/2007 6 Allowance Optional Claiming $55,000 Go Now 6
CD 05/19/2007 7 Claiming $23,000 Imaflashycat 7
CD 05/19/2007 8 Claiming $33,000 Rayona 5
CD 05/19/2007 10 Allowance $50,000 Stormy West 4
CD 05/20/2007 2 Claiming $17,000 Double Shotgun 6
CD 05/20/2007 4 Claiming $19,000 Bargainwiththdevil 1
CD 05/20/2007 5 Claiming $30,000 Acting Blonde 7
CD 05/20/2007 7 Claiming $33,000 Self Made Man 2
CD 05/20/2007 8 Allowance $50,000 Bobby's Babe 7
CD 05/20/2007 9 Allowance $50,000 Arosa (IRE) 2
CD 05/20/2007 10 Maiden Claiming $19,000 I Know Its Not 10
CD 05/23/2007 2 Maiden Claiming $19,000 Rosebud Souix 1
CD 05/23/2007 4 Allowance $50,000 Chekhov 2
CD 05/23/2007 5 Claiming $23,000 Cincinnati Red 5
CD 05/23/2007 6 Allowance $65,000 Mauralakana (FR) 1
CD 05/23/2007 8 Allowance $50,000 Pauillac 4
CD 05/23/2007 9 Maiden Special Weight $48,000 Terror On Track 2
CD 05/24/2007 1 Maiden Claiming $24,000 Monsieur Fruchon 2
CD 05/24/2007 2 Allowance $52,500 Travel Team 5
CD 05/24/2007 3 Maiden Claiming $14,000 Cherokee Nation 3
CD 05/24/2007 4 Claiming $24,000 Miss Sub Z 5
CD 05/24/2007 5 Claiming $41,000 Primetime Princess 1
CD 05/24/2007 7 Maiden Special Weight $48,000 Rhapsodybohemian 7
CD 05/24/2007 8 Allowance $52,500 Yate's Black Cat 2
CD 05/24/2007 9 Claiming $30,000 Shock N Storm 9
CD 05/25/2007 4 Maiden Claiming $14,000 Patricia's Cat 1
CD 05/25/2007 6 Maiden Special Weight $48,000 Beppin 5
CD 05/25/2007 8 Claiming $24,000 Kiln Creek 1
CD 05/25/2007 9 Allowance Optional Claiming $55,000 Flow Chart (UAE) 1
CD 05/25/2007 10 Allowance $50,000 Gem Sleuth 6
CD 05/25/2007 11 Maiden Special Weight $48,000 Normandy Queen 9
CD 05/26/2007 1 Maiden Claiming $24,000 Honest to Betsy 2
CD 05/26/2007 2 Claiming $23,000 Quick Pay 5
CD 05/26/2007 3 Maiden Claiming $14,000 Vilas County 4
CD 05/26/2007 6 Maiden Special Weight $48,000 Yonegwa 2
CD 05/26/2007 8 Allowance $52,500 Ballet Pacifica 1
CD 05/26/2007 9 Allowance Optional Claiming $55,000 Piety 7
CD 05/26/2007 10 Louisville Handicap - Gr. 3 $150,000 Louve des Reves (IRE) 8
CD 05/26/2007 11 Claiming $17,000 The Color Red 8
CD 05/27/2007 2 Claiming $23,000 Pennypinchinpete 3
CD 05/27/2007 3 Maiden Special Weight $48,000 Red Hot Poker 2
CD 05/27/2007 4 Claiming $18,000 Star Crest 5
CD 05/27/2007 5 Maiden Special Weight $48,000 Dreabons Legacy 1
CD 05/27/2007 6 Claiming $31,000 Victory Blue 5
CD 05/27/2007 7 Maiden Special Weight $48,000 Dinner Guest 4
CD 05/27/2007 8 Allowance Optional Claiming $58,500 Bully for You 2
CD 05/27/2007 9 Allowance $50,000 Mallabar 4
CD 05/27/2007 10 Claiming $36,000 Montstar 9
CD 05/28/2007 1 Claiming $18,000 Holy Wonder 2
CD 05/28/2007 2 Claiming $31,000 Flapper 3
CD 05/28/2007 4 Claiming $41,000 Engineered 2
CD 05/28/2007 7 Claiming $33,000 International Cat 8
CD 05/28/2007 8 Allowance $50,000 Pavarotti 1
CD 05/28/2007 10 Winning Colors Stakes - Gr. 3 $100,000 Morner 7
CD 05/28/2007 11 Starter Allowance $26,000 La Joyeria 2
CD 05/31/2007 4 Maiden Special Weight $48,000 Counselled 4
CD 05/31/2007 5 Claiming $15,000 Homem Ra 2
CD 05/31/2007 6 Maiden Claiming $24,000 Miss Sharona 9
CD 05/31/2007 7 Allowance $50,000 Come Together 2
CD 05/31/2007 8 Allowance $50,000 Classic Robbery 6
CD 05/31/2007 9 Maiden Special Weight $48,000 Zounds 3
CD 06/01/2007 3 Claiming $17,000 Tocqueville 1
CD 06/01/2007 4 Maiden Claiming $24,000 Fantastic Bud 1
CD 06/01/2007 5 Claiming $41,000 Easy Money 8
CD 06/01/2007 6 Claiming $18,000 Acallaway 1
CD 06/01/2007 9 Allowance $50,000 Quasicobra 6
CD 06/01/2007 10 Allowance $52,500 Wildcat Fan 5
CD 06/01/2007 11 Maiden Special Weight $48,000 Gerivello 2
CD 06/02/2007 2 Claiming $26,000 Abbeys Runner 4
CD 06/02/2007 3 Maiden Special Weight $48,000 Purely Wild 4
CD 06/02/2007 4 Maiden Special Weight $48,000 Itsawonderfullife (IRE) 2
CD 06/02/2007 5 Maiden Special Weight $48,000 Manofthewest 2
CD 06/02/2007 6 Allowance $50,000 Moo Man 5
CD 06/02/2007 7 Allowance Optional Claiming $58,500 Miss Wellspring 4
CD 06/02/2007 8 Opening Verse Handicap $100,000 Free Thinking 4
CD 06/02/2007 9 Dogwood Stakes - Gr. 3 $150,000 Upcoming Story 3
CD 06/02/2007 10 Aristides Stakes - Gr. 3 $150,000 Off Duty 5
CD 06/03/2007 1 Claiming $18,000 Privy's Jewel 1
CD 06/03/2007 2 Maiden Claiming $14,000 Colsanshe 3
CD 06/03/2007 4 Maiden Special Weight $48,000 Hidden Heart 5
CD 06/03/2007 5 Claiming $17,000 Boss Tiffany 1
CD 06/03/2007 6 Maiden Special Weight $48,000 Hot Cocoa 7
CD 06/03/2007 7 Allowance $50,000 My Lovely Lesley 6
CD 06/03/2007 8 Starter Allowance $22,000 Tampa's Big City 5
CD 06/03/2007 9 Allowance Optional Claiming $55,000 Sadler's Trick 9
CD 06/03/2007 10 Claiming $15,000 Do Run Run 8
CD 06/06/2007 2 Claiming $21,000 Ni Kel Willy 4
CD 06/06/2007 4 Claiming $33,000 Reito Peito 7
CD 06/06/2007 7 Maiden Special Weight $48,000 Ice Boyz 6
CD 06/06/2007 8 Allowance $50,000 Flawless Treasure 1
CD 06/07/2007 1 Claiming $18,000 What the Devil 2
CD 06/07/2007 6 Maiden Special Weight $48,000 Pray Tell 4
CD 06/07/2007 7 Claiming $23,000 Direct Pay 4
CD 06/07/2007 8 Allowance $52,500 Smokeyjonessutton 2
CD 06/07/2007 9 Maiden Claiming $19,000 Clayton's Wish 4
CD 06/08/2007 1 Allowance Optional Claiming $52,500 Don'tgetmadgeteven 7
CD 06/08/2007 2 Maiden Claiming $24,000 Ecton 2
CD 06/08/2007 3 Maiden Claiming $24,000 Who's Counting 4
CD 06/08/2007 5 Starter Allowance $26,000 A Nice Splash 3
CD 06/08/2007 7 Maiden Claiming $24,000 Honour Maid 2
CD 06/08/2007 8 Allowance $50,000 Her Majesty 1
CD 06/08/2007 9 Claiming $31,000 George Ray 9
CD 06/08/2007 10 Allowance $50,000 Chekhov 5
CD 06/08/2007 11 Maiden Special Weight $48,000 La Traviata 1
BEL 06/09/2007 2 Maiden Special Weight $59,000 Anascaul 5
BEL 06/09/2007 4 Allowance $58,000 Helene's Dream 4
BEL 06/09/2007 5 Foresta Stakes $80,000 Flow Chart (UAE) 5
BEL 06/09/2007 7 Just a Game Stakes - Gr. 2 $300,000 Mauralakana (FR) 4
BEL 06/09/2007 12 Allowance $58,000 Elegant Ellie 11
BEL 06/09/2007 13 Maiden Special Weight $57,000 Jackie's Punt 10
CD 06/10/2007 2 Claiming $17,000 Louisville Sam 1
CD 06/10/2007 3 Maiden Special Weight $48,000 Vice Commander 6
CD 06/10/2007 4 Claiming $23,000 Twilight Tap 4
CD 06/10/2007 5 Maiden Special Weight $48,000 Racing Quality 9
CD 06/10/2007 7 Claiming $31,000 Splendid in Spring 4
CD 06/10/2007 8 Allowance $50,000 Pleasant Hill 1
CD 06/10/2007 9 Allowance Optional Claiming $55,000 Go Bucky Go 9
CD 06/13/2007 1 Claiming $24,000 Neverabettercity 4
CD 06/13/2007 2 Claiming $30,000 Easy Money 1
CD 06/13/2007 3 Maiden Special Weight $48,000 Mutadda 4
CD 06/13/2007 6 Claiming $17,000 Nip It 5
CD 06/13/2007 8 Allowance $50,000 Minister's Appeal 7
CD 06/14/2007 1 Maiden Claiming $19,000 Sassy Shore Breeze 1
CD 06/14/2007 3 Maiden Special Weight $48,000 Rhapsodybohemian 3
CD 06/14/2007 4 Maiden Claiming $14,000 Cherokee Nation 4
CD 06/14/2007 5 Claiming $41,000 Final Copy 2
CD 06/14/2007 6 Maiden Claiming $19,000 Saint Jamie 5
CD 06/14/2007 7 Starter Allowance $22,000 Miami Sunrise 1
CD 06/14/2007 8 Allowance $50,000 Marquee Delivery 2
CD 06/14/2007 9 Allowance $52,500 Yate's Black Cat 1
CD 06/15/2007 2 Allowance $50,000 Check My Daddy 6
CD 06/15/2007 6 Claiming $36,000 Spark of Humor 5
CD 06/15/2007 8 Claiming $23,000 Philips Pride 3
CD 06/15/2007 9 Claiming $30,000 Abbeys Runner 1
CD 06/15/2007 10 Allowance Optional Claiming $55,000 Lemons Forever 1
CNL 06/16/2007 1 Maiden Special Weight $26,500 Duck Hunt 5
CNL 06/16/2007 3 Maiden Claiming $17,000 My Manhattan 1
CNL 06/16/2007 7 Allowance $28,000 Mount Weather 2
CNL 06/16/2007 8 Old Nelson Handicap $45,000 Equal Opportunity 12
CNL 06/16/2007 9 All Along Breeders' Cup Stakes - Gr. 3 $150,000 Ballet Pacifica 5
CNL 06/16/2007 10 Colonial Turf Cup Stakes - Gr. 3 $750,000 Time Squared 9
CD 06/17/2007 1 Maiden Claiming $14,000 Oh Mia My Oh 5
CD 06/17/2007 2 Maiden Claiming $24,000 Skip Away Star 4
CD 06/17/2007 4 Claiming $41,000 Tepexpan 2
CD 06/17/2007 5 Maiden Special Weight $48,000 La Wildcat 5
CD 06/17/2007 6 Maiden Special Weight $48,000 Competition 8
CD 06/17/2007 7 Claiming $18,000 Colton's Magic Cat 5
CD 06/17/2007 8 Allowance $50,000 Lumberjack Cat 4
CD 06/17/2007 9 Allowance Optional Claiming $55,000 Bully for You 2
CD 06/17/2007 10 Allowance $52,500 Crumbs of Comfort 6
CD 06/20/2007 1 Claiming $18,000 Acallaway 4
CD 06/20/2007 3 Starter Allowance $26,000 La Joyeria 3
CD 06/20/2007 5 Claiming $31,000 Captive 1
CD 06/20/2007 6 Maiden Special Weight $48,000 Elusive Melody 2
CD 06/20/2007 7 Allowance $50,000 Roman's Run 1
CD 06/20/2007 8 Allowance $50,000 Niagara Causeway 1
CD 06/20/2007 9 Maiden Claiming $24,000 Big N Ready 2
CD 06/21/2007 3 Claiming $18,000 Goes 4
CD 06/21/2007 4 Claiming $36,000 Babes 5
CD 06/21/2007 6 Claiming $23,000 He's a Dixie Boy 5
CD 06/21/2007 7 Maiden Special Weight $48,000 Kaishu 3
CD 06/21/2007 8 Allowance $52,500 Wildcat Fan 3
CD 06/21/2007 9 Claiming $15,000 Kutenai 10
CD 06/22/2007 1 Maiden Claiming $19,000 Spin the Gold 3
CD 06/22/2007 2 Claiming $23,000 That's a Secret 6
CD 06/22/2007 3 Claiming $24,000 Boss Tiffany 2
CD 06/22/2007 5 Maiden Special Weight $48,000 Missamerica Bertie 10
CD 06/22/2007 7 Claiming $17,000 Archie B 4
CD 06/22/2007 9 Allowance $50,000 Block 1
CD 06/22/2007 10 Claiming $23,000 Crafty Melissa 2
AP 06/23/2007 7 Possibly Perfect Stakes $45,000 Arosa (IRE) 3
AP 06/23/2007 9 Arlington Classic Stakes - Gr. 3 $150,000 Quasicobra 3
CD 06/24/2007 2 Maiden Special Weight $48,000 Honest to Betsy 2
CD 06/24/2007 9 Claiming $30,000 Cab 2
CD 06/24/2007 10 Allowance Optional Claiming $61,000 Morner 5
CD 06/24/2007 11 Maiden Special Weight $48,000 Red Hot Poker 3
CD 06/27/2007 1 Claiming $17,000 Star Crest 1
CD 06/27/2007 2 Maiden Claiming $22,000 Counselled 1
CD 06/27/2007 3 Claiming $23,000 Payment in Kind 1
CD 06/27/2007 4 Allowance $50,000 Gem Sleuth 1
CD 06/27/2007 5 Allowance $50,000 Classic Robbery 7
CD 06/27/2007 6 Claiming $31,000 Fantastic Bud 8
CD 06/27/2007 7 Claiming $14,000 Patricia's Cat 1
CD 06/27/2007 8 Allowance $52,500 High Blues 1
CD 06/27/2007 9 Maiden Special Weight $48,000 Ghost Maker 8
CD 06/28/2007 4 Maiden Special Weight $48,000 Itsawonderfullife (IRE) 1
CD 06/28/2007 6 Maiden Claiming $14,000 Albert's Watching 6
CD 06/28/2007 7 Allowance $50,000 Temple Street 3
CD 06/28/2007 9 Claiming $17,000 Rose Blanket 7
CD 06/29/2007 4 Claiming $36,000 Kenta Kun 4
CD 06/29/2007 5 Claiming $24,000 No Lac O Zip 3
CD 06/29/2007 7 Maiden Claiming $19,000 Black Jack Breeze 7
CD 06/29/2007 8 Allowance $50,000 Congo King 5
CD 06/29/2007 9 Maiden Special Weight $48,000 Gerivello 1
CD 06/29/2007 10 Allowance $50,000 Self Made Man 1
CD 06/29/2007 11 Maiden Claiming $14,000 I'm the Diva 4
CD 06/30/2007 1 Maiden Claiming $19,000 Tachyon 1
CD 06/30/2007 3 Starter Allowance $22,000 Miami Sunrise 1
CD 06/30/2007 4 Claiming $30,000 Abbeys Runner 4
CD 06/30/2007 5 Maiden Special Weight $48,000 Saratoga Seven 7
CD 06/30/2007 6 Claiming $23,000 Rayona 1
CD 06/30/2007 7 Maiden Special Weight $48,000 In Orbit 7
CD 06/30/2007 8 Allowance $50,000 Crafty Mark 7
CD 06/30/2007 9 Allowance $52,500 Pleasant Hill 2
CD 06/30/2007 10 Firecracker Handicap - Gr. 2 $250,000 Tiganello (GER) 7
PRM 06/30/2007 6 Iowa Sprint Handicap $125,000 Fleet Valid 4
PRM 06/30/2007 8 Prairie Meadows Cornhusker Handicap - Gr. 2 $300,000 Smokeyjonessutton 8
CD 07/01/2007 1 Maiden Special Weight $48,000 Cherokee Time 5
CD 07/01/2007 2 Claiming $24,000 Power Pack 1
CD 07/01/2007 3 Maiden Claiming $14,000 Colsanshe 4
CD 07/01/2007 4 Allowance Optional Claiming $52,500 What a Character 2
CD 07/01/2007 5 Claiming $15,000 Homem Ra 1
CD 07/01/2007 6 Allowance Optional Claiming $55,000 Sumthingtotalkabt 3
CD 07/01/2007 7 Maiden Special Weight $48,000 Cozy Mesa 2
CD 07/01/2007 8 Claiming $18,000 Louisville Sam 4
CD 07/01/2007 9 Allowance Optional Claiming $55,000 Go Bucky Go 4
CD 07/01/2007 10 Claiming $41,000 Spark of Humor 6
AP 07/04/2007 6 Allowance $30,500 Shim's Pride 3
AP 07/04/2007 8 Allowance Optional Claiming $30,500 Fort Apache Star 3
AP 07/04/2007 9 Stars and Stripes Turf Handicap - Gr. 3 $200,000 Stream Cat 3
CD 07/05/2007 1 Maiden Claiming $22,000 Print the Legend 5
CD 07/05/2007 2 Claiming $17,000 Dancing in Gerarda 7
CD 07/05/2007 3 Claiming $33,000 Morghyn 1
CD 07/05/2007 4 Maiden Claiming $24,000 Who's Counting 1
CD 07/05/2007 5 Claiming $31,000 Yes It's the Truth 6
CD 07/05/2007 7 Allowance $50,000 Lumberjack Cat 5